User: anonymous   Login
Location: Natural Bridges National Monument
(37.6093°N, 109.9767°W)
Time: 02:18:42
(UTC-06:00)
Language:

USA 32 - Orbit

View from above orbital plane
View from above orbital plane
View from above satellite
View from above satellite

Ground track
Ground track

The orbit data is extracted from the following two-line orbital elements,

1 19460U 88078A   15212.87338203 0.00000060  00000-0  21816-4 0    07
2 19460  84.9853 260.3556 0002291 154.6968 205.3030 14.33325844    09
Epoch (UTC): 31 July 2015 20:57:40
Eccentricity: 0.0002291
inclination: 84.9853°
perigee height: 779 km
apogee height: 782 km
right ascension of ascending node: 260.3556°
argument of perigee: 154.6968°
revolutions per day: 14.33325844
mean anomaly at epoch: 205.3030°
orbit number at epoch: 0

The dashed part of the orbit path shows where the satellite is in the earth's shadow,  

DLR